Bradford, PA

4:57 PM EDT on September 23, 2017 (GMT -0400)
Bradford Regional

Weather History for KBFD - June, 2013

Change the Weather History Date:

Thursday, June 6, 2013

  Actual Average Record
Temperature  
Mean Temperature 57 °F 59 °F  
Max Temperature 62 °F 71 °F 86 °F (2008)
Min Temperature 53 °F 47 °F 31 °F (1978)
Degree Days  
Heating Degree Days 8 3  
Month to date heating degree days 22  
Since 1 June heating degree days 22  
Since 1 July heating degree days 7650  
Cooling Degree Days 0 1  
Month to date cooling degree days 6  
Year to date cooling degree days 16  
Since 1 June cooling degree days 6  
Growing Degree Days 7 (Base 50)    
Moisture  
Dew Point 53 °F    
Average Humidity 88    
Maximum Humidity 94    
Minimum Humidity 67    
Precipitation  
Precipitation 1.27 in 0.16 in 1.68 in (2010)
Month to date precipitation 0.96  
Year to date precipitation 17.70  
Sea Level Pressure  
Sea Level Pressure 29.92 in    
Wind  
Wind Speed 9 mph (SE)    
Max Wind Speed 14 mph    
Max Gust Speed 21 mph    
Visibility 5 miles    
Events Rain    
T = Trace of Precipitation, MM = Missing Value Source: NWS Daily Summary

Daily Weather History Graph

Daily Weather History Graph

Search for Another Location

Airport or City:

Trip Planner

Search our weather history database for the weather conditions in past years. The results will help you decide how hot, cold, wet, or windy it might be!

Date:

Astronomy

Jun. 06, 2013 Rise Set
Actual Time 5:40 AM EDT 8:46 PM EDT
Civil Twilight 5:06 AM EDT 9:20 PM EDT
Nautical Twilight 4:23 AM EDT 10:03 PM EDT
Astronomical Twilight 3:31 AM EDT 10:55 PM EDT
Moon 4:22 AM EDT (6/6) 7:05 PM EDT (6/6)
Length of Visible Light 16h 14m
Length of Day
15h 06m
Waning Crescent, 4% of the Moon is Illuminated
Jun 6
Waning Crescent
Jun 8
New
Jun 16
First Quarter
Jun 23
Full
Jun 30
Last Quarter

Hourly Weather History & Observations

Time (EDT) Temp. Dew Point Humidity Pressure Visibility Wind Dir Wind Speed Gust Speed Precip Events Conditions
12:53 AM 60.1 °F 48.9 °F 67% 30.02 in 10.0 mi SE 4.6 mph - N/A   Overcast
1:53 AM 60.1 °F 48.9 °F 67% 29.99 in 10.0 mi SE 6.9 mph - N/A   Mostly Cloudy
2:53 AM 61.0 °F 50.0 °F 67% 29.98 in 10.0 mi SE 8.1 mph - N/A   Mostly Cloudy
3:53 AM 61.0 °F 51.1 °F 70% 29.96 in 10.0 mi SE 10.4 mph - N/A   Overcast
4:53 AM 61.0 °F 52.0 °F 72% 29.94 in 10.0 mi SSE 11.5 mph - 0.07 in   Overcast
5:53 AM 57.9 °F 54.0 °F 87% 29.95 in 8.0 mi SE 5.8 mph - 0.04 in Rain Light Rain
6:53 AM 57.9 °F 54.0 °F 87% 29.95 in 7.0 mi SE 6.9 mph - 0.02 in Rain Light Rain
7:53 AM 57.9 °F 55.0 °F 90% 29.95 in 8.0 mi SE 8.1 mph - 0.03 in Rain Light Rain
8:10 AM 57.9 °F 54.0 °F 87% 29.98 in 6.0 mi SE 10.4 mph - 0.00 in Rain Light Rain
8:23 AM 57.9 °F 54.0 °F 87% 29.98 in 8.0 mi SE 9.2 mph - 0.00 in Rain Light Rain
8:37 AM 57.0 °F 54.0 °F 89% 29.98 in 1.5 mi SE 9.2 mph 18.4 mph 0.06 in Rain Heavy Rain
8:53 AM 57.0 °F 54.0 °F 89% 29.96 in 3.0 mi SE 9.2 mph - 0.10 in Rain Light Rain
9:15 AM 57.0 °F 54.0 °F 89% 29.97 in 2.5 mi SE 10.4 mph - 0.04 in Rain Rain
9:22 AM 57.0 °F 53.1 °F 87% 29.97 in 3.0 mi SSE 12.7 mph - 0.05 in Rain Rain
9:42 AM 55.9 °F 53.1 °F 90% 29.97 in 4.0 mi SE 10.4 mph 20.7 mph 0.08 in Rain Rain
9:53 AM 55.9 °F 53.1 °F 90% 29.95 in 3.0 mi SE 9.2 mph - 0.10 in Rain Rain
10:06 AM 55.9 °F 53.1 °F 90% 29.96 in 4.0 mi SE 10.4 mph - 0.02 in Rain Light Rain
10:53 AM 55.9 °F 53.1 °F 90% 29.94 in 5.0 mi SE 13.8 mph 20.7 mph 0.09 in Rain Light Rain
11:07 AM 55.9 °F 52.0 °F 87% 29.95 in 4.0 mi SE 10.4 mph - 0.02 in Rain Rain
11:19 AM 55.0 °F 52.0 °F 89% 29.95 in 2.5 mi SE 10.4 mph 19.6 mph 0.04 in Rain Rain
11:53 AM 55.0 °F 51.1 °F 86% 29.94 in 2.0 mi SE 8.1 mph 19.6 mph 0.10 in Rain Rain
11:58 AM 54.0 °F 52.0 °F 93% 29.95 in 2.0 mi SE 10.4 mph - 0.01 in Rain Rain
12:13 PM 54.0 °F 51.1 °F 90% 29.94 in 3.0 mi SE 12.7 mph 19.6 mph 0.03 in Rain Light Rain
12:25 PM 54.0 °F 51.1 °F 90% 29.94 in 7.0 mi SE 9.2 mph 19.6 mph 0.03 in Rain Light Rain
12:32 PM 54.0 °F 51.1 °F 90% 29.94 in 4.0 mi SSE 10.4 mph - 0.04 in Rain Light Rain
12:38 PM 54.0 °F 51.1 °F 90% 29.94 in 1.8 mi SE 11.5 mph - 0.07 in Rain Heavy Rain
12:53 PM 54.0 °F 51.1 °F 90% 29.93 in 1.2 mi SSE 10.4 mph - 0.14 in Rain Heavy Rain
1:06 PM 54.0 °F 52.0 °F 93% 29.93 in 2.0 mi SSE 9.2 mph - 0.02 in Rain Rain
1:30 PM 54.0 °F 51.1 °F 90% 29.92 in 1.8 mi SE 9.2 mph - 0.06 in Rain Rain
1:38 PM 54.0 °F 51.1 °F 90% 29.92 in 3.0 mi SSE 10.4 mph - 0.07 in Rain Rain
1:48 PM 53.6 °F 51.8 °F 94% 29.92 in 2.0 mi SSE 10.4 mph - 0.10 in Rain Heavy Rain
1:53 PM 54.0 °F 51.1 °F 90% 29.91 in 2.0 mi SE 10.4 mph - 0.11 in Rain Rain
2:10 PM 54.0 °F 52.0 °F 93% 29.91 in 1.5 mi SE 10.4 mph - 0.04 in Rain Rain
2:23 PM 55.0 °F 52.0 °F 89% 29.91 in 2.0 mi SE 10.4 mph - 0.07 in Rain Rain
2:33 PM 54.0 °F 52.0 °F 93% 29.91 in 1.2 mi SSE 8.1 mph - 0.11 in Rain Heavy Rain
2:53 PM 55.0 °F 52.0 °F 89% 29.89 in 2.5 mi SE 8.1 mph - 0.18 in Rain Rain
3:28 PM 55.9 °F 53.1 °F 90% 29.90 in 4.0 mi SSE 10.4 mph - 0.10 in Rain Light Rain
3:53 PM 55.9 °F 53.1 °F 90% 29.87 in 4.0 mi SSE 10.4 mph - 0.11 in Rain Light Rain
4:53 PM 55.9 °F 53.1 °F 90% 29.86 in 4.0 mi SSE 13.8 mph - 0.00 in Rain Light Rain
5:17 PM 55.9 °F 53.1 °F 90% 29.87 in 2.5 mi SSE 10.4 mph - 0.01 in Rain Light Rain
5:36 PM 55.9 °F 53.1 °F 90% 29.87 in 4.0 mi SE 10.4 mph - 0.03 in Rain Light Rain
5:53 PM 55.9 °F 53.1 °F 90% 29.86 in 4.0 mi SSE 8.1 mph - 0.03 in Rain Light Rain
6:08 PM 55.9 °F 53.1 °F 90% 29.87 in 1.8 mi SE 9.2 mph - 0.03 in Rain Rain
6:20 PM 55.9 °F 53.1 °F 90% 29.86 in 3.0 mi SE 8.1 mph - 0.05 in Rain Light Rain
6:53 PM 55.9 °F 54.0 °F 93% 29.84 in 5.0 mi SSE 11.5 mph 18.4 mph 0.07 in Rain Light Rain
7:12 PM 57.0 °F 54.0 °F 89% 29.86 in 4.0 mi SSE 10.4 mph - 0.01 in Rain Light Rain
7:28 PM 57.0 °F 55.0 °F 93% 29.86 in 2.5 mi SSE 9.2 mph - 0.04 in Rain Rain
7:35 PM 57.9 °F 55.0 °F 90% 29.85 in 4.0 mi SSE 10.4 mph - 0.05 in Rain Light Rain
7:53 PM 57.9 °F 55.0 °F 90% 29.85 in 6.0 mi SSE 8.1 mph - 0.06 in Rain Light Rain
8:04 PM 57.9 °F 55.0 °F 90% 29.86 in 6.0 mi SSE 9.2 mph - 0.00 in Rain Light Rain
8:11 PM 57.9 °F 55.0 °F 90% 29.86 in 7.0 mi SSE 8.1 mph - 0.00 in Rain Light Rain
8:53 PM 57.9 °F 55.0 °F 90% 29.84 in 6.0 mi SSE 10.4 mph - 0.01 in Rain Light Rain
9:04 PM 57.9 °F 55.0 °F 90% 29.86 in 9.0 mi SSE 10.4 mph 19.6 mph 0.00 in   Overcast
9:53 PM 57.9 °F 55.0 °F 90% 29.85 in 10.0 mi SSE 6.9 mph - 0.00 in   Overcast
10:53 PM 57.9 °F 55.0 °F 90% 29.86 in 10.0 mi SSE 5.8 mph - 0.00 in Rain Light Rain
11:53 PM 57.9 °F 55.0 °F 90% 29.85 in 10.0 mi SSE 6.9 mph - 0.01 in   Overcast